Regional Weather Roundup
Issued by NWS

Home | Current Version | Previous Version | Graphics & Text | Print | Product List | Glossary Off
Versions: 1 2 3 4 5 6 7 8 9 10 11 12 13 14 15 16 17 18 19 20 21 22 23 24 25 26 27 28 29 30 31 32 33 34 35 36 37 38 39 40 41 42 43 44 45 46 47 48 49 50

000
ASUS43 KMKX 251421
RWRWI

WISCONSIN REGIONAL WEATHER ROUNDUP
NATIONAL WEATHER SERVICE MILWAUKEE/SULLIVAN WI
800 AM CST THU DEC 25 2014

NOTE: "FAIR" INDICATES FEW OR NO CLOUDS BELOW 12,000 FEET WITH NO
SIGNIFICANT WEATHER AND/OR OBSTRUCTIONS TO VISIBILITY.

WIZ001-002-006>008-014>016-023>028-251500-
NORTHWEST WISCONSIN

CITY           SKY/WX    TMP DP  RH WIND       PRES   REMARKS
SUPERIOR ARPT  CLOUDY    32  29  88 SW7       29.62R WCI  26
ASHLAND        CLOUDY    32  28  85 SW12      29.62R WCI  23
HAYWARD        CLOUDY    31  26  82 SW10      29.63R WCI  22
SIREN          CLOUDY    31  28  88 SW9       29.65S WCI  23
CUMBERLAND     CLOUDY    30  27  86 SW12      29.65S WCI  21
RICE LAKE      CLOUDY    31  27  86 S6        29.68R WCI  25
CHETEK         CLOUDY    30  28  90 S7        29.67S WCI  23
LADYSMITH      CLOUDY    31  29  89 SW10G16   29.68R WCI  23
EAU CLAIRE     CLOUDY    30  25  81 SW12      29.70R WCI  20
MENOMONIE      CLOUDY    31  27  87 S9        29.70R WCI  23
NEW RICHMOND   CLOUDY    30  28  94 S12       29.68R WCI  20
OSCEOLA        CLOUDY    31  30  97 S7        29.71R WCI  24
$$

WIZ003>005-009-010-017-018-251500-
NORTH CENTRAL WISCONSIN

CITY           SKY/WX    TMP DP  RH WIND       PRES   REMARKS
MANITOWISH WTR CLOUDY    29  28  96 SW10G17   29.61R WCI  19
ARBOR VITAE    CLOUDY    32  29  90 SW7       29.63R WCI  25
WOODRUFF       CLOUDY    32  29  90 SW7       29.63R WCI  25
RHINELANDER    CLOUDY    29  26  89 SW12      29.64R WCI  19
EAGLE RIVER    CLOUDY    30  28  94 SW13G18   29.62R WCI  20
LAND O LAKES   CLOUDY    31  28  92 SW6       29.62R WCI  25
PHILLIPS       CLOUDY    29  27  90 SW7       29.63S WCI  22
TOMAHAWK       CLOUDY    29  27  90 SW5       29.66R WCI  24
MEDFORD        CLOUDY    29  27  90 SW7       29.67R WCI  22
MERRILL        CLOUDY    30  28  90 W8        29.68R WCI  23
$$

WIZ029-030-035-036-043>047-251500-
CENTRAL WISCONSIN

CITY           SKY/WX    TMP DP  RH WIND       PRES   REMARKS
WAUSAU         CLOUDY    31  27  85 SW9       29.68R WCI  23
MOSINEE        CLOUDY    30  28  93 SW8       29.70R WCI  23
MARSHFIELD     CLOUDY    31  27  85 SW12      29.70R WCI  22
STEVENS POINT  CLOUDY    30  26  86 SW7       29.72R WCI  23
WAUPACA        CLOUDY    34  29  82 SW12      29.74R WCI  26
WAUTOMA        CLOUDY    33  29  86 SW9       29.76R WCI  25
WISC RAPIDS    CLOUDY    31  25  78 SW9       29.74R WCI  23
CAMP DOUGLAS   CLOUDY    31  30  99 SW10      29.76R WCI  22
$$

WIZ011>013-019>022-031-037>040-048>050-251500-
NORTHEAST WISCONSIN

CITY           SKY/WX    TMP DP  RH WIND       PRES   REMARKS
ANTIGO         CLOUDY    29  27  90 W12       29.67R WCI  19
SHAWANO        CLOUDY    35  29  80 SW8       29.73R WCI  28
OCONTO         CLOUDY    33  31  91 SW12G17   29.71S WCI  24
STURGEON BAY   CLOUDY    34  27  75 SW10      29.73R WCI  26
GREEN BAY      CLOUDY    34  30  85 SW9       29.73R WCI  27
MANITOWOC      CLOUDY    35  30  82 W12       29.76R WCI  27
APPLETON       CLOUDY    34  30  86 SW10      29.73R WCI  26
CLINTONVILLE   CLOUDY    32  28  86 W12       29.73R WCI  23
OSHKOSH        CLOUDY    34  27  75 VRB5      29.75R WCI  30
$$

WIZ032>034-041-042-053>061-251500-
SOUTHWEST WISCONSIN

CITY           SKY/WX    TMP DP  RH WIND       PRES   REMARKS
LA CROSSE      CLOUDY    33  27  78 S6        29.76R WCI  28
SPARTA         CLOUDY    31  27  83 SW7       29.76S WCI  24
VIROQUA        CLOUDY    30  30 100 SW14      29.75R WCI  19
BOSCOBEL       CLOUDY    33  27  78 SW13G18   29.81R WCI  24
PRAIRIE DU CHI CLOUDY    32  27  80 S9        29.81R WCI  24
PLATTEVILLE    CLOUDY    32  29  89 SW17      29.83R WCI  21
$$

WIZ056-057-062-063-064-067-068-251500-
SOUTH CENTRAL WISCONSIN

CITY           SKY/WX    TMP DP  RH WIND       PRES   REMARKS
REEDSBURG      CLOUDY    31  27  86 SW7       29.78R WCI  24
BARABOO/DELLS  CLOUDY    31  27  84 SW8       29.77R WCI  23
LONE ROCK      CLOUDY    36  27  69 SW8       29.81R WCI  30
MINERAL POINT  CLOUDY    32  30  93 SW8       29.80R WCI  25
MADISON        CLOUDY    32  26  78 VRB6      29.80R WCI  26
MIDDLETON      CLOUDY    33  28  81 SW10G18   29.80R WCI  25
WATERTOWN      CLOUDY    32  29  90 SW10      29.80R WCI  24
MONROE         CLOUDY    32  30  93 SW12G21   29.82R WCI  23
JANESVILLE     CLOUDY    34  28  80 MISG      29.83R
$$

WIZ051-052-058>065-066-070>072-251500-
SOUTHEAST WISCONSIN

CITY           SKY/WX    TMP DP  RH WIND       PRES   REMARKS
MILWAUKEE      CLOUDY    34  27  75 W13       29.83R WCI  25
WAUKESHA       CLOUDY    30  27  86 SW12G17   29.82R WCI  21
MILWAUKEE/TIMM CLOUDY    34  27  75 W10       29.82R WCI  26
RACINE         CLOUDY    34  27  75 SW15G21   29.85R WCI  24
BURLINGTON     CLOUDY    32  28  84 SW15G21   29.83R WCI  21
KENOSHA        CLOUDY    34  29  82 SW17G25   29.84R WCI  23
FOND DU LAC    CLOUDY    34  28  79 SW10      29.77R WCI  26
SHEBOYGAN      CLOUDY    34  28  79 SW12      29.77R WCI  25
WEST BEND      CLOUDY    32  28  86 SW10G18   29.79R WCI  24
JUNEAU         CLOUDY    32  28  86 SW10      29.80R WCI  24
$$

LSZ147-162-251500-
LAKE SUPERIOR

STATION/POSITION TIME  TEMP    WIND        PRES    WAVE
                       AIR SEA DIR/SP/G            HT/PER
                 (UTC) (F)     (DEG/KT/KT) (MB)    (FT/S)
DEVILS ISLAND    1400   34     230/ 18/ 22 1002.9R
PORT WING        1300   33     210/  9/ 13 1002.4R
SAXON HARBOR     1300   34     190/  6/ 13 1002.4R
$$

LMZ867-665-643>646-251500-
LAKE MICHIGAN

STATION/POSITION TIME  TEMP    WIND        PRES    WAVE
                       AIR SEA DIR/SP/G            HT/PER
                 (UTC) (F)     (DEG/KT/KT) (MB)    (FT/S)
CHAMBERS ISLAND  1300   34     210/  7/ 13 1005.1R
NORTHPORT PIER   1300   33     240/  4/  9 1004.7R
SISTER BAY       1313          220/ 11/ 14   N/A
ALGOMA LAKESHORE 1315          290/ 11/ 17   N/A
KEWAUNEE LAKESHO 1400   35     250/  5/ 11 1006.3R
SHEBOYGAN LAKESH 1400   35 37  240/ 16/ 19 1009.1R
PORT WASHINGTON  1300   36     260/  9/ 14 1009.1R
MILWAUKEE LAKESH 1400   35     250/ 11/ 14   N/A
KENOSHA   LAKESH 1400   34     250/ 16/ 22 1011.2R
$$

TC  - TEMPERATURE IN CELSIUS
VSB - VISIBILITY IN STATUTE MILES
WCI - WIND CHILL INDEX
HX  - HEAT INDEX




USA.gov is the U.S. government's official web portal to all federal, state and local government web resources and services.